Time,TemperatureF,DewpointF,PressureIn,WindDirection,WindDirectionDegrees,WindSpeedMPH,WindSpeedGustMPH,Humidity,HourlyPrecipIn,Conditions,Clouds,dailyrainin,SoftwareType,DateUTC
2013-04-15 00:00:00,42.3,33.7,29.61,SW,225,1.8,2.0,71,0.00,,,0.00,WUHU216HW,2013-04-15 05:00:00,
2013-04-15 00:05:00,42.1,33.5,29.62,SW,225,1.1,2.0,71,0.00,,,0.00,WUHU216HW,2013-04-15 05:05:00,
2013-04-15 00:10:00,41.9,33.3,29.62,SW,225,1.8,2.0,71,0.00,,,0.00,WUHU216HW,2013-04-15 05:10:00,
2013-04-15 00:15:00,41.8,33.1,29.62,SW,225,1.3,2.2,71,0.00,,,0.00,WUHU216HW,2013-04-15 05:15:00,
2013-04-15 00:20:00,41.8,33.1,29.62,WSW,248,2.5,3.4,71,0.00,,,0.00,WUHU216HW,2013-04-15 05:20:00,
2013-04-15 00:25:00,41.8,33.1,29.62,SW,225,2.0,3.8,71,0.00,,,0.00,WUHU216HW,2013-04-15 05:25:00,
2013-04-15 00:30:00,41.9,33.3,29.63,SW,225,1.1,3.8,71,0.00,,,0.00,WUHU216HW,2013-04-15 05:30:00,
2013-04-15 00:35:00,41.8,33.1,29.63,SW,225,2.0,3.4,71,0.00,,,0.00,WUHU216HW,2013-04-15 05:35:00,
2013-04-15 00:40:00,41.8,33.1,29.63,SSW,203,2.5,3.1,71,0.00,,,0.00,WUHU216HW,2013-04-15 05:40:00,
2013-04-15 00:45:00,41.8,32.8,29.62,SW,225,1.1,3.8,70,0.00,,,0.00,WUHU216HW,2013-04-15 05:45:00,
2013-04-15 00:50:00,41.8,32.8,29.63,SW,225,1.1,3.8,70,0.00,,,0.00,WUHU216HW,2013-04-15 05:50:00,
2013-04-15 00:55:00,41.8,32.4,29.62,WSW,248,1.6,2.7,69,0.00,,,0.00,WUHU216HW,2013-04-15 05:55:00,
2013-04-15 01:00:00,41.9,32.1,29.63,SW,225,4.3,4.3,68,0.00,,,0.00,WUHU216HW,2013-04-15 06:00:00,
2013-04-15 01:05:00,41.8,32.0,29.63,SW,225,3.6,4.3,68,0.00,,,0.00,WUHU216HW,2013-04-15 06:05:00,
2013-04-15 01:10:00,41.8,31.6,29.64,SW,225,2.7,4.0,67,0.00,,,0.00,WUHU216HW,2013-04-15 06:10:00,
2013-04-15 01:15:00,41.8,31.6,29.64,WSW,248,0.7,4.3,67,0.00,,,0.00,WUHU216HW,2013-04-15 06:15:00,
2013-04-15 01:20:00,41.6,31.4,29.63,WNW,293,0.7,4.7,67,0.00,,,0.00,WUHU216HW,2013-04-15 06:20:00,
2013-04-15 01:25:00,41.9,31.8,29.63,WNW,293,3.4,4.7,67,0.00,,,0.00,WUHU216HW,2013-04-15 06:25:00,
2013-04-15 01:30:00,42.5,31.5,29.62,NW,315,2.5,5.1,65,0.00,,,0.00,WUHU216HW,2013-04-15 06:30:00,
2013-04-15 01:35:00,42.5,31.5,29.63,WSW,248,2.0,5.1,65,0.00,,,0.00,WUHU216HW,2013-04-15 06:35:00,
2013-04-15 01:40:00,42.1,31.1,29.62,SW,225,1.3,4.0,65,0.00,,,0.00,WUHU216HW,2013-04-15 06:40:00,
2013-04-15 01:45:00,41.8,31.2,29.63,SW,225,1.1,3.4,66,0.00,,,0.00,WUHU216HW,2013-04-15 06:45:00,
2013-04-15 01:50:00,41.4,30.9,29.63,West,270,0.9,3.4,66,0.00,,,0.00,WUHU216HW,2013-04-15 06:50:00,
2013-04-15 01:55:00,41.2,31.1,29.63,WNW,293,1.3,3.4,67,0.00,,,0.00,WUHU216HW,2013-04-15 06:55:00,
2013-04-15 02:00:00,41.4,30.9,29.63,West,270,1.6,3.8,66,0.00,,,0.00,WUHU216HW,2013-04-15 07:00:00,
2013-04-15 02:05:00,41.8,30.4,29.63,West,270,3.6,4.0,64,0.00,,,0.00,WUHU216HW,2013-04-15 07:05:00,
2013-04-15 02:06:00,41.8,30.9,29.63,WNW,293,2.0,4.0,65,0.00,,,0.00,WUHU216HW,2013-04-15 07:06:00,
2013-04-15 02:08:00,41.8,30.9,29.63,WSW,248,2.5,4.0,65,0.00,,,0.00,WUHU216HW,2013-04-15 07:08:00,
2013-04-15 02:09:00,41.8,30.4,29.63,SW,225,0.9,4.0,64,0.00,,,0.00,WUHU216HW,2013-04-15 07:09:00,
2013-04-15 02:11:00,41.6,30.2,29.63,West,270,1.8,4.0,64,0.00,,,0.00,WUHU216HW,2013-04-15 07:11:00,
2013-04-15 02:12:00,41.6,30.7,29.63,West,270,1.1,4.0,65,0.00,,,0.00,WUHU216HW,2013-04-15 07:12:00,
2013-04-15 02:14:00,41.4,30.5,29.63,SSW,203,0.0,4.0,65,0.00,,,0.00,WUHU216HW,2013-04-15 07:14:00,
2013-04-15 02:15:00,41.4,30.5,29.63,WSW,248,2.5,3.4,65,0.00,,,0.00,WUHU216HW,2013-04-15 07:15:00,
2013-04-15 02:17:00,41.2,30.3,29.64,WNW,293,1.3,3.4,65,0.00,,,0.00,WUHU216HW,2013-04-15 07:17:00,
2013-04-15 02:18:00,41.2,30.3,29.64,WNW,293,0.4,2.9,65,0.00,,,0.00,WUHU216HW,2013-04-15 07:18:00,
2013-04-15 02:20:00,41.0,30.2,29.64,WNW,293,1.1,2.9,65,0.00,,,0.00,WUHU216HW,2013-04-15 07:20:00,
2013-04-15 02:21:00,41.0,30.2,29.64,SW,225,1.1,2.9,65,0.00,,,0.00,WUHU216HW,2013-04-15 07:21:00,
2013-04-15 02:23:00,40.9,30.0,29.64,WNW,293,0.9,2.5,65,0.00,,,0.00,WUHU216HW,2013-04-15 07:23:00,
2013-04-15 02:24:00,40.9,30.3,29.64,WNW,293,1.8,2.5,66,0.00,,,0.00,WUHU216HW,2013-04-15 07:24:00,
2013-04-15 02:26:00,40.9,30.3,29.64,SW,225,1.1,2.2,66,0.00,,,0.00,WUHU216HW,2013-04-15 07:26:00,
2013-04-15 02:27:00,40.7,30.2,29.64,WSW,248,1.8,2.2,66,0.00,,,0.00,WUHU216HW,2013-04-15 07:27:00,
2013-04-15 02:29:00,40.7,30.2,29.64,West,270,4.5,4.5,66,0.00,,,0.00,WUHU216HW,2013-04-15 07:29:00,
2013-04-15 02:30:00,40.7,30.2,29.64,WSW,248,1.8,4.5,66,0.00,,,0.00,WUHU216HW,2013-04-15 07:30:00,
2013-04-15 02:32:00,40.7,30.2,29.64,WSW,248,0.9,4.5,66,0.00,,,0.00,WUHU216HW,2013-04-15 07:32:00,
2013-04-15 02:41:00,40.7,29.8,29.64,WNW,293,2.0,6.3,65,0.00,,,0.00,WUHU216HW,2013-04-15 07:41:00,
2013-04-15 02:46:00,41.2,30.0,29.64,West,270,2.5,6.3,64,0.00,,,0.00,WUHU216HW,2013-04-15 07:46:00,
2013-04-15 02:48:00,41.2,30.0,29.64,WNW,293,1.8,6.3,64,0.00,,,0.00,WUHU216HW,2013-04-15 07:48:00,
2013-04-15 02:50:00,41.4,30.2,29.64,NW,315,2.9,4.0,64,0.00,,,0.00,WUHU216HW,2013-04-15 07:50:00,
2013-04-15 02:55:00,41.2,30.0,29.63,West,270,3.4,4.3,64,0.00,,,0.00,WUHU216HW,2013-04-15 07:55:00,
2013-04-15 03:01:00,41.0,29.8,29.64,WNW,293,2.2,4.7,64,0.00,,,0.00,WUHU216HW,2013-04-15 08:01:00,
2013-04-15 03:06:00,41.0,30.2,29.64,West,270,2.5,4.7,65,0.00,,,0.00,WUHU216HW,2013-04-15 08:06:00,
2013-04-15 03:11:00,40.7,29.8,29.64,West,270,0.7,3.8,65,0.00,,,0.00,WUHU216HW,2013-04-15 08:11:00,
2013-04-15 03:16:00,40.3,29.8,29.64,West,270,2.5,3.8,66,0.00,,,0.00,WUHU216HW,2013-04-15 08:16:00,
2013-04-15 03:21:00,40.5,30.0,29.65,WNW,293,2.7,4.3,66,0.00,,,0.00,WUHU216HW,2013-04-15 08:21:00,
2013-04-15 03:26:00,40.3,30.2,29.65,WNW,293,1.6,4.3,67,0.00,,,0.00,WUHU216HW,2013-04-15 08:26:00,
2013-04-15 03:32:00,40.0,29.8,29.66,West,270,2.0,4.0,67,0.00,,,0.00,WUHU216HW,2013-04-15 08:32:00,
2013-04-15 03:36:00,40.0,29.8,29.67,WNW,293,1.8,3.4,67,0.00,,,0.00,WUHU216HW,2013-04-15 08:36:00,
2013-04-15 03:40:00,39.8,29.6,29.66,WNW,293,3.6,3.6,67,0.00,,,0.00,WUHU216HW,2013-04-15 08:40:00,
2013-04-15 03:45:00,39.4,29.7,29.67,WNW,293,2.5,3.8,68,0.00,,,0.00,WUHU216HW,2013-04-15 08:45:00,
2013-04-15 03:50:00,39.2,29.9,29.67,NW,315,4.5,4.5,69,0.00,,,0.00,WUHU216HW,2013-04-15 08:50:00,
2013-04-15 03:55:00,39.2,29.9,29.67,WNW,293,4.7,4.7,69,0.00,,,0.00,WUHU216HW,2013-04-15 08:55:00,
2013-04-15 04:00:00,39.2,30.2,29.67,WSW,248,2.2,5.1,70,0.00,,,0.00,WUHU216HW,2013-04-15 09:00:00,
2013-04-15 04:05:00,39.1,29.7,29.67,North,0,5.4,5.4,69,0.00,,,0.00,WUHU216HW,2013-04-15 09:05:00,
2013-04-15 04:10:00,38.9,29.5,29.67,WNW,293,2.7,5.4,69,0.00,,,0.00,WUHU216HW,2013-04-15 09:10:00,
2013-04-15 04:15:00,38.9,29.9,29.68,NW,315,3.1,6.7,70,0.00,,,0.00,WUHU216HW,2013-04-15 09:15:00,
2013-04-15 04:20:00,38.5,29.6,29.68,NW,315,3.4,6.7,70,0.00,,,0.00,WUHU216HW,2013-04-15 09:20:00,
2013-04-15 04:25:00,38.5,29.6,29.68,WNW,293,1.8,4.9,70,0.00,,,0.00,WUHU216HW,2013-04-15 09:25:00,
2013-04-15 04:30:00,38.5,29.6,29.68,North,0,4.3,6.9,70,0.00,,,0.00,WUHU216HW,2013-04-15 09:30:00,
2013-04-15 04:35:00,38.5,29.6,29.68,WNW,293,0.7,7.8,70,0.00,,,0.00,WUHU216HW,2013-04-15 09:35:00,
2013-04-15 04:40:00,38.2,29.6,29.68,WNW,293,3.4,7.8,71,0.00,,,0.00,WUHU216HW,2013-04-15 09:40:00,
2013-04-15 04:45:00,38.0,29.4,29.67,NNE,23,3.6,6.0,71,0.00,,,0.00,WUHU216HW,2013-04-15 09:45:00,
2013-04-15 04:50:00,37.8,29.3,29.67,WNW,293,2.0,6.0,71,0.00,,,0.00,WUHU216HW,2013-04-15 09:50:00,
2013-04-15 04:55:00,37.6,29.4,29.67,WNW,293,2.0,4.7,72,0.00,,,0.00,WUHU216HW,2013-04-15 09:55:00,
2013-04-15 05:00:00,37.3,29.1,29.68,WNW,293,2.5,4.0,72,0.00,,,0.00,WUHU216HW,2013-04-15 10:00:00,
2013-04-15 05:05:00,37.1,28.9,29.68,WNW,293,1.8,4.7,72,0.00,,,0.00,WUHU216HW,2013-04-15 10:05:00,
2013-04-15 05:10:00,37.1,28.9,29.68,WNW,293,0.2,5.6,72,0.00,,,0.00,WUHU216HW,2013-04-15 10:10:00,
2013-04-15 05:15:00,36.9,28.5,29.69,West,270,2.2,5.8,71,0.00,,,0.00,WUHU216HW,2013-04-15 10:15:00,
2013-04-15 05:20:00,36.9,28.5,29.68,NW,315,0.7,5.8,71,0.00,,,0.00,WUHU216HW,2013-04-15 10:20:00,
2013-04-15 05:25:00,36.9,28.1,29.69,WNW,293,3.4,5.8,70,0.00,,,0.00,WUHU216HW,2013-04-15 10:25:00,
2013-04-15 05:30:00,36.9,28.1,29.69,WNW,293,0.7,5.8,70,0.00,,,0.00,WUHU216HW,2013-04-15 10:30:00,
2013-04-15 05:35:00,36.7,27.9,29.69,WNW,293,4.5,5.1,70,0.00,,,0.00,WUHU216HW,2013-04-15 10:35:00,
2013-04-15 05:40:00,36.7,27.9,29.70,WNW,293,1.3,5.1,70,0.00,,,0.00,WUHU216HW,2013-04-15 10:40:00,
2013-04-15 05:45:00,36.5,28.1,29.69,WNW,293,1.6,4.5,71,0.00,,,0.00,WUHU216HW,2013-04-15 10:45:00,
2013-04-15 05:50:00,36.4,27.9,29.70,WNW,293,0.0,4.3,71,0.00,,,0.00,WUHU216HW,2013-04-15 10:50:00,
2013-04-15 05:55:00,36.4,27.9,29.71,WNW,293,0.7,1.6,71,0.00,,,0.00,WUHU216HW,2013-04-15 10:55:00,
2013-04-15 06:00:00,36.4,27.9,29.71,West,270,0.0,1.8,71,0.00,,,0.00,WUHU216HW,2013-04-15 11:00:00,
2013-04-15 06:05:00,36.0,27.6,29.71,West,270,0.0,1.8,71,0.00,,,0.00,WUHU216HW,2013-04-15 11:05:00,
2013-04-15 06:10:00,35.6,27.2,29.72,West,270,0.0,0.4,71,0.00,,,0.00,WUHU216HW,2013-04-15 11:10:00,
2013-04-15 06:15:00,35.3,26.8,29.73,SSW,203,0.9,1.3,71,0.00,,,0.00,WUHU216HW,2013-04-15 11:15:00,
2013-04-15 06:20:00,35.3,27.5,29.74,West,270,0.4,3.6,73,0.00,,,0.00,WUHU216HW,2013-04-15 11:20:00,
2013-04-15 06:25:00,35.5,27.3,29.75,WNW,293,0.2,3.6,72,0.00,,,0.00,WUHU216HW,2013-04-15 11:25:00,
2013-04-15 06:30:00,35.1,26.9,29.75,WSW,248,0.0,1.8,72,0.00,,,0.00,WUHU216HW,2013-04-15 11:30:00,
2013-04-15 06:35:00,35.1,26.9,29.76,West,270,2.0,5.4,72,0.00,,,0.00,WUHU216HW,2013-04-15 11:35:00,
2013-04-15 06:40:00,35.3,27.1,29.77,WNW,293,1.8,5.4,72,0.00,,,0.00,WUHU216HW,2013-04-15 11:40:00,
2013-04-15 06:45:00,35.3,27.1,29.77,WNW,293,0.4,3.4,72,0.00,,,0.00,WUHU216HW,2013-04-15 11:45:00,
2013-04-15 06:50:00,35.1,26.9,29.77,SW,225,0.7,2.5,72,0.00,,,0.00,WUHU216HW,2013-04-15 11:50:00,
2013-04-15 06:55:00,35.3,27.1,29.77,WNW,293,5.4,5.4,72,0.00,,,0.00,WUHU216HW,2013-04-15 11:55:00,
2013-04-15 07:00:00,35.6,27.2,29.77,West,270,2.5,5.8,71,0.00,,,0.00,WUHU216HW,2013-04-15 12:00:00,
2013-04-15 07:05:00,36.2,27.7,29.77,West,270,1.8,5.8,71,0.00,,,0.00,WUHU216HW,2013-04-15 12:05:00,
2013-04-15 07:10:00,36.7,27.9,29.78,WSW,248,0.4,4.7,70,0.00,,,0.00,WUHU216HW,2013-04-15 12:10:00,
2013-04-15 07:15:00,37.1,27.9,29.78,WNW,293,2.7,4.7,69,0.00,,,0.00,WUHU216HW,2013-04-15 12:15:00,
2013-04-15 07:20:00,36.9,27.4,29.79,West,270,2.5,4.0,68,0.00,,,0.00,WUHU216HW,2013-04-15 12:20:00,
2013-04-15 07:25:00,36.9,27.4,29.79,West,270,0.4,4.0,68,0.00,,,0.00,WUHU216HW,2013-04-15 12:25:00,
2013-04-15 07:30:00,36.7,27.2,29.79,WNW,293,2.7,5.1,68,0.00,,,0.00,WUHU216HW,2013-04-15 12:30:00,
2013-04-15 07:35:00,36.5,27.0,29.80,West,270,2.0,5.1,68,0.00,,,0.00,WUHU216HW,2013-04-15 12:35:00,
2013-04-15 07:40:00,36.4,26.8,29.80,WNW,293,3.1,4.3,68,0.00,,,0.00,WUHU216HW,2013-04-15 12:40:00,
2013-04-15 07:45:00,36.4,26.8,29.79,West,270,2.0,4.7,68,0.00,,,0.00,WUHU216HW,2013-04-15 12:45:00,
2013-04-15 07:50:00,36.5,27.4,29.79,WNW,293,1.1,4.7,69,0.00,,,0.00,WUHU216HW,2013-04-15 12:50:00,
2013-04-15 07:55:00,36.4,26.5,29.79,West,270,2.9,4.0,67,0.00,,,0.00,WUHU216HW,2013-04-15 12:55:00,
2013-04-15 08:01:00,36.5,26.7,29.79,WNW,293,3.1,4.7,67,0.00,,,0.00,WUHU216HW,2013-04-15 13:01:00,
2013-04-15 08:06:00,36.7,26.8,29.80,West,270,0.9,4.7,67,0.00,,,0.00,WUHU216HW,2013-04-15 13:06:00,
2013-04-15 08:11:00,37.8,27.8,29.80,West,270,1.1,4.0,67,0.00,,,0.00,WUHU216HW,2013-04-15 13:11:00,
2013-04-15 08:16:00,38.2,26.7,29.80,WNW,293,2.5,4.7,63,0.00,,,0.00,WUHU216HW,2013-04-15 13:16:00,
2013-04-15 08:21:00,37.8,26.3,29.79,WNW,293,6.7,6.7,63,0.00,,,0.00,WUHU216HW,2013-04-15 13:21:00,
2013-04-15 08:26:00,37.4,25.6,29.81,WNW,293,4.3,6.7,62,0.00,,,0.00,WUHU216HW,2013-04-15 13:26:00,
2013-04-15 08:31:00,36.9,24.4,29.82,North,0,4.7,8.9,60,0.00,,,0.00,WUHU216HW,2013-04-15 13:31:00,
2013-04-15 08:36:00,36.5,24.4,29.82,NW,315,4.9,8.9,61,0.00,,,0.00,WUHU216HW,2013-04-15 13:36:00,
2013-04-15 08:42:00,36.5,24.0,29.82,WSW,248,4.7,8.1,60,0.00,,,0.00,WUHU216HW,2013-04-15 13:42:00,
2013-04-15 08:47:00,36.4,24.2,29.83,West,270,4.7,8.1,61,0.00,,,0.00,WUHU216HW,2013-04-15 13:47:00,
2013-04-15 08:52:00,36.4,24.2,29.82,West,270,1.8,6.9,61,0.00,,,0.00,WUHU216HW,2013-04-15 13:52:00,
2013-04-15 08:57:00,36.4,24.2,29.84,West,270,6.0,6.9,61,0.00,,,0.00,WUHU216HW,2013-04-15 13:57:00,
2013-04-15 09:02:00,36.4,24.6,29.85,WNW,293,5.1,8.3,62,0.00,,,0.00,WUHU216HW,2013-04-15 14:02:00,
2013-04-15 09:07:00,36.2,24.5,29.84,West,270,4.9,8.3,62,0.00,,,0.00,WUHU216HW,2013-04-15 14:07:00,
2013-04-15 09:12:00,36.0,24.0,29.85,SW,225,2.7,8.3,61,0.00,,,0.00,WUHU216HW,2013-04-15 14:12:00,
2013-04-15 09:17:00,36.0,24.3,29.86,WNW,293,3.1,8.3,62,0.00,,,0.00,WUHU216HW,2013-04-15 14:17:00,
2013-04-15 09:22:00,36.2,24.5,29.86,WNW,293,5.6,6.7,62,0.00,,,0.00,WUHU216HW,2013-04-15 14:22:00,
2013-04-15 09:27:00,36.0,24.7,29.85,WNW,293,5.1,7.8,63,0.00,,,0.00,WUHU216HW,2013-04-15 14:27:00,
2013-04-15 09:32:00,35.8,24.5,29.84,WNW,293,4.7,7.8,63,0.00,,,0.00,WUHU216HW,2013-04-15 14:32:00,
2013-04-15 09:37:00,35.8,24.1,29.84,WNW,293,4.3,6.0,62,0.00,,,0.00,WUHU216HW,2013-04-15 14:37:00,
2013-04-15 09:42:00,35.6,24.3,29.84,NW,315,5.4,10.3,63,0.00,,,0.00,WUHU216HW,2013-04-15 14:42:00,
2013-04-15 09:47:00,35.3,25.0,29.83,WNW,293,5.4,10.3,66,0.00,,,0.00,WUHU216HW,2013-04-15 14:47:00,
2013-04-15 09:53:00,34.9,25.0,29.83,West,270,4.0,8.7,67,0.00,,,0.00,WUHU216HW,2013-04-15 14:53:00,
2013-04-15 09:58:00,34.6,25.4,29.83,NW,315,3.4,8.7,69,0.00,,,0.00,WUHU216HW,2013-04-15 14:58:00,
2013-04-15 10:03:00,34.2,26.4,29.83,NW,315,5.8,7.6,73,0.00,,,0.00,WUHU216HW,2013-04-15 15:03:00,
2013-04-15 10:08:00,33.5,26.0,29.84,West,270,6.0,6.0,74,0.00,,,0.00,WUHU216HW,2013-04-15 15:08:00,
2013-04-15 10:13:00,32.8,25.0,29.84,NW,315,4.3,6.9,73,0.00,,,0.00,WUHU216HW,2013-04-15 15:13:00,
2013-04-15 10:18:00,32.8,24.7,29.84,NW,315,3.4,7.2,72,0.00,,,0.00,WUHU216HW,2013-04-15 15:18:00,
2013-04-15 10:23:00,32.9,24.8,29.84,WNW,293,4.0,7.2,72,0.00,,,0.00,WUHU216HW,2013-04-15 15:23:00,
2013-04-15 10:28:00,32.8,24.7,29.84,West,270,4.0,5.4,72,0.00,,,0.00,WUHU216HW,2013-04-15 15:28:00,
2013-04-15 10:33:00,32.8,24.7,29.85,WNW,293,3.6,5.8,72,0.00,,,0.00,WUHU216HW,2013-04-15 15:33:00,
2013-04-15 10:38:00,32.9,24.8,29.85,WNW,293,3.8,9.2,72,0.00,,,0.00,WUHU216HW,2013-04-15 15:38:00,
2013-04-15 10:43:00,33.1,25.0,29.85,WNW,293,5.4,9.2,72,0.00,,,0.00,WUHU216HW,2013-04-15 15:43:00,
2013-04-15 10:48:00,33.5,25.4,29.85,WNW,293,1.8,6.3,72,0.00,,,0.00,WUHU216HW,2013-04-15 15:48:00,
2013-04-15 10:53:00,33.7,25.8,29.86,SW,225,2.5,5.1,73,0.00,,,0.00,WUHU216HW,2013-04-15 15:53:00,
2013-04-15 10:58:00,34.2,26.4,29.86,WNW,293,1.6,5.1,73,0.00,,,0.00,WUHU216HW,2013-04-15 15:58:00,
2013-04-15 11:03:00,34.7,27.2,29.86,West,270,3.1,4.7,74,0.00,,,0.00,WUHU216HW,2013-04-15 16:03:00,
2013-04-15 11:08:00,34.9,27.1,29.87,WNW,293,4.9,5.1,73,0.00,,,0.00,WUHU216HW,2013-04-15 16:08:00,
2013-04-15 11:13:00,35.5,27.6,29.87,West,270,2.5,6.5,73,0.00,,,0.00,WUHU216HW,2013-04-15 16:13:00,
2013-04-15 11:18:00,35.8,27.6,29.86,NW,315,3.4,7.2,72,0.00,,,0.00,WUHU216HW,2013-04-15 16:18:00,
2013-04-15 11:24:00,36.4,27.9,29.86,WNW,293,2.5,7.2,71,0.00,,,0.00,WUHU216HW,2013-04-15 16:24:00,
2013-04-15 11:29:00,36.5,28.1,29.86,WNW,293,1.8,5.4,71,0.00,,,0.00,WUHU216HW,2013-04-15 16:29:00,
2013-04-15 11:34:00,36.9,27.7,29.87,WNW,293,4.3,8.9,69,0.00,,,0.00,WUHU216HW,2013-04-15 16:34:00,
2013-04-15 11:39:00,36.7,27.2,29.87,West,270,9.4,9.4,68,0.00,,,0.00,WUHU216HW,2013-04-15 16:39:00,
2013-04-15 11:44:00,36.9,27.7,29.88,WSW,248,5.4,9.4,69,0.00,,,0.00,WUHU216HW,2013-04-15 16:44:00,
2013-04-15 11:49:00,36.9,27.7,29.88,NW,315,5.8,7.8,69,0.00,,,0.00,WUHU216HW,2013-04-15 16:49:00,
2013-04-15 11:54:00,36.9,27.4,29.88,NW,315,5.1,8.1,68,0.00,,,0.00,WUHU216HW,2013-04-15 16:54:00,
2013-04-15 11:59:00,36.7,27.6,29.89,WNW,293,3.4,8.3,69,0.00,,,0.00,WUHU216HW,2013-04-15 16:59:00,
2013-04-15 12:04:00,37.1,27.6,29.88,WNW,293,5.4,8.5,68,0.00,,,0.00,WUHU216HW,2013-04-15 17:04:00,
2013-04-15 12:09:00,37.3,26.6,29.89,NW,315,4.3,8.5,65,0.00,,,0.00,WUHU216HW,2013-04-15 17:09:00,
2013-04-15 12:14:00,37.4,27.1,29.89,West,270,1.3,8.5,66,0.00,,,0.00,WUHU216HW,2013-04-15 17:14:00,
2013-04-15 12:19:00,37.6,26.6,29.88,West,270,6.3,11.4,64,0.00,,,0.00,WUHU216HW,2013-04-15 17:19:00,
2013-04-15 12:21:00,37.8,27.1,29.88,NW,315,3.4,11.4,65,0.00,,,0.00,WUHU216HW,2013-04-15 17:21:00,
2013-04-15 12:22:00,37.8,27.1,29.88,West,270,4.0,11.4,65,0.00,,,0.00,WUHU216HW,2013-04-15 17:22:00,
2013-04-15 12:25:00,38.0,26.8,29.88,West,270,5.4,11.4,64,0.00,,,0.00,WUHU216HW,2013-04-15 17:25:00,
2013-04-15 12:30:00,38.3,27.2,29.88,NNE,23,4.3,8.5,64,0.00,,,0.00,WUHU216HW,2013-04-15 17:30:00,
2013-04-15 13:00:00,39.2,27.6,29.88,West,270,4.3,4.3,63,0.00,,,0.00,WUHU216HW,2013-04-15 18:00:00,
2013-04-15 13:05:00,38.9,27.3,29.88,WNW,293,5.8,7.6,63,0.00,,,0.00,WUHU216HW,2013-04-15 18:05:00,
2013-04-15 13:10:00,39.1,27.5,29.88,WNW,293,5.1,7.6,63,0.00,,,0.00,WUHU216HW,2013-04-15 18:10:00,
2013-04-15 13:15:00,39.2,28.0,29.88,West,270,5.8,7.8,64,0.00,,,0.00,WUHU216HW,2013-04-15 18:15:00,
2013-04-15 13:20:00,39.1,27.8,29.87,WNW,293,5.6,9.2,64,0.00,,,0.00,WUHU216HW,2013-04-15 18:20:00,
2013-04-15 13:25:00,39.2,28.0,29.88,NE,45,6.0,9.2,64,0.00,,,0.00,WUHU216HW,2013-04-15 18:25:00,
2013-04-15 13:29:00,39.4,28.2,29.87,WNW,293,4.3,6.0,64,0.00,,,0.00,WUHU216HW,2013-04-15 18:29:00,
2013-04-15 13:34:00,39.2,28.4,29.87,WNW,293,4.7,7.6,65,0.00,,,0.00,WUHU216HW,2013-04-15 18:34:00,
2013-04-15 13:39:00,39.4,28.5,29.88,NNW,338,1.8,7.6,65,0.00,,,0.00,WUHU216HW,2013-04-15 18:39:00,
2013-04-15 13:44:00,39.6,28.0,29.87,WSW,248,7.6,7.6,63,0.00,,,0.00,WUHU216HW,2013-04-15 18:44:00,
2013-04-15 13:49:00,39.4,28.2,29.87,NW,315,5.8,7.8,64,0.00,,,0.00,WUHU216HW,2013-04-15 18:49:00,
2013-04-15 13:54:00,39.8,28.5,29.88,WNW,293,5.4,9.4,64,0.00,,,0.00,WUHU216HW,2013-04-15 18:54:00,
2013-04-15 13:59:00,40.3,29.4,29.87,WNW,293,3.4,9.4,65,0.00,,,0.00,WUHU216HW,2013-04-15 18:59:00,
2013-04-15 14:04:00,40.5,29.3,29.87,NW,315,6.3,8.7,64,0.00,,,0.00,WUHU216HW,2013-04-15 19:04:00,
2013-04-15 14:09:00,40.7,29.4,29.87,NNW,338,2.9,7.4,64,0.00,,,0.00,WUHU216HW,2013-04-15 19:09:00,
2013-04-15 14:14:00,40.7,29.4,29.87,NNW,338,4.3,6.3,64,0.00,,,0.00,WUHU216HW,2013-04-15 19:14:00,
2013-04-15 14:19:00,41.0,29.8,29.87,NNW,338,2.0,5.4,64,0.00,,,0.00,WUHU216HW,2013-04-15 19:19:00,
2013-04-15 14:24:00,40.7,29.1,29.87,WNW,293,7.4,7.4,63,0.00,,,0.00,WUHU216HW,2013-04-15 19:24:00,
2013-04-15 14:29:00,40.7,29.4,29.87,NW,315,4.5,7.6,64,0.00,,,0.00,WUHU216HW,2013-04-15 19:29:00,
2013-04-15 14:34:00,41.0,29.4,29.87,NW,315,6.3,7.6,63,0.00,,,0.00,WUHU216HW,2013-04-15 19:34:00,
2013-04-15 14:39:00,41.2,29.5,29.87,NW,315,3.6,6.3,63,0.00,,,0.00,WUHU216HW,2013-04-15 19:39:00,
2013-04-15 14:44:00,41.6,29.9,29.87,WNW,293,1.8,6.3,63,0.00,,,0.00,WUHU216HW,2013-04-15 19:44:00,
2013-04-15 14:50:00,41.6,29.9,29.87,WSW,248,3.4,5.8,63,0.00,,,0.00,WUHU216HW,2013-04-15 19:50:00,
2013-04-15 14:55:00,41.8,30.1,29.87,West,270,3.4,6.3,63,0.00,,,0.00,WUHU216HW,2013-04-15 19:55:00,
2013-04-15 14:57:00,41.9,30.3,29.87,NNE,23,6.3,6.3,63,0.00,,,0.00,WUHU216HW,2013-04-15 19:57:00,
2013-04-15 14:58:00,41.9,30.3,29.87,West,270,2.9,6.3,63,0.00,,,0.00,WUHU216HW,2013-04-15 19:58:00,
2013-04-15 15:01:00,41.6,29.9,29.86,WSW,248,4.7,6.7,63,0.00,,,0.00,WUHU216HW,2013-04-15 20:01:00,
2013-04-15 15:02:00,41.6,29.9,29.86,WNW,293,5.4,6.7,63,0.00,,,0.00,WUHU216HW,2013-04-15 20:02:00,
2013-04-15 15:03:00,41.4,29.7,29.86,North,0,3.4,6.7,63,0.00,,,0.00,WUHU216HW,2013-04-15 20:03:00,
2013-04-15 15:08:00,41.6,29.9,29.86,NW,315,5.6,5.6,63,0.00,,,0.00,WUHU216HW,2013-04-15 20:08:00,
2013-04-15 15:13:00,41.8,30.1,29.86,WNW,293,3.4,6.5,63,0.00,,,0.00,WUHU216HW,2013-04-15 20:13:00,
2013-04-15 15:18:00,42.1,30.4,29.87,NNW,338,1.6,7.6,63,0.00,,,0.00,WUHU216HW,2013-04-15 20:18:00,
2013-04-15 15:23:00,42.8,30.2,29.87,North,0,3.4,7.6,61,0.00,,,0.00,WUHU216HW,2013-04-15 20:23:00,
2013-04-15 15:28:00,42.7,30.2,29.86,North,0,1.3,7.2,61,0.00,,,0.00,WUHU216HW,2013-04-15 20:28:00,
2013-04-15 15:33:00,42.8,29.9,29.86,SSE,158,3.1,6.5,60,0.00,,,0.00,WUHU216HW,2013-04-15 20:33:00,
2013-04-15 15:38:00,43.0,30.4,29.86,NNW,338,4.0,6.3,61,0.00,,,0.00,WUHU216HW,2013-04-15 20:38:00,
2013-04-15 15:43:00,43.2,30.2,29.86,NNW,338,2.7,6.3,60,0.00,,,0.00,WUHU216HW,2013-04-15 20:43:00,
2013-04-15 15:48:00,43.2,30.2,29.86,North,0,2.7,5.6,60,0.00,,,0.00,WUHU216HW,2013-04-15 20:48:00,
2013-04-15 16:30:00,45.4,31.0,29.86,West,270,1.8,1.8,57,0.00,,,0.00,WUHU216HW,2013-04-15 21:30:00,
2013-04-15 16:35:00,45.4,30.1,29.86,NNW,338,2.5,3.6,55,0.00,,,0.00,WUHU216HW,2013-04-15 21:35:00,
2013-04-15 16:40:00,45.4,30.5,29.85,WNW,293,3.4,4.7,56,0.00,,,0.00,WUHU216HW,2013-04-15 21:40:00,
2013-04-15 16:45:00,45.7,31.3,29.86,NNE,23,2.5,4.7,57,0.00,,,0.00,WUHU216HW,2013-04-15 21:45:00,
2013-04-15 16:50:00,45.5,30.2,29.85,NNE,23,4.0,4.7,55,0.00,,,0.00,WUHU216HW,2013-04-15 21:50:00,
2013-04-15 16:55:00,45.5,30.2,29.86,NNW,338,4.5,6.5,55,0.00,,,0.00,WUHU216HW,2013-04-15 21:55:00,
2013-04-15 17:00:00,45.7,31.3,29.86,WNW,293,1.8,6.5,57,0.00,,,0.00,WUHU216HW,2013-04-15 22:00:00,
2013-04-15 17:05:00,46.1,31.1,29.86,North,0,2.9,4.5,56,0.00,,,0.00,WUHU216HW,2013-04-15 22:05:00,
2013-04-15 17:10:00,45.9,30.2,29.86,WNW,293,2.5,4.3,54,0.00,,,0.00,WUHU216HW,2013-04-15 22:10:00,
2013-04-15 20:30:00,43.9,32.1,29.92,WNW,293,0.7,0.7,63,0.00,,,0.00,WUHU216HW,2013-04-16 01:30:00,
2013-04-15 20:35:00,43.9,32.1,29.93,NW,315,0.2,1.1,63,0.00,,,0.00,WUHU216HW,2013-04-16 01:35:00,
2013-04-15 20:40:00,43.9,32.1,29.93,NNW,338,0.4,1.8,63,0.00,,,0.00,WUHU216HW,2013-04-16 01:40:00,
2013-04-15 20:45:00,43.7,32.3,29.94,WSW,248,1.1,3.4,64,0.00,,,0.00,WUHU216HW,2013-04-16 01:45:00,
2013-04-15 20:50:00,43.9,32.5,29.94,WNW,293,1.3,3.4,64,0.00,,,0.00,WUHU216HW,2013-04-16 01:50:00,
2013-04-15 20:55:00,44.1,32.3,29.95,WNW,293,1.1,3.6,63,0.00,,,0.00,WUHU216HW,2013-04-16 01:55:00,
2013-04-15 21:00:00,44.1,32.3,29.95,North,0,1.1,4.0,63,0.00,,,0.00,WUHU216HW,2013-04-16 02:00:00,
2013-04-15 21:05:00,43.9,32.1,29.95,NNE,23,4.7,4.7,63,0.00,,,0.00,WUHU216HW,2013-04-16 02:05:00,
2013-04-15 21:10:00,43.9,32.1,29.95,East,90,2.5,4.7,63,0.00,,,0.00,WUHU216HW,2013-04-16 02:10:00,
2013-04-15 21:15:00,43.7,32.0,29.96,NNE,23,2.5,4.7,63,0.00,,,0.00,WUHU216HW,2013-04-16 02:15:00,
2013-04-15 21:20:00,43.6,31.8,29.96,North,0,3.1,4.9,63,0.00,,,0.00,WUHU216HW,2013-04-16 02:20:00,
2013-04-15 21:25:00,43.6,31.8,29.97,NNE,23,2.0,4.9,63,0.00,,,0.00,WUHU216HW,2013-04-16 02:25:00,
2013-04-15 21:30:00,43.4,31.6,29.97,NNW,338,1.1,4.0,63,0.00,,,0.00,WUHU216HW,2013-04-16 02:30:00,
2013-04-15 21:35:00,43.2,31.4,29.97,NNE,23,4.0,6.3,63,0.00,,,0.00,WUHU216HW,2013-04-16 02:35:00,
2013-04-15 21:40:00,43.0,31.2,29.97,NNW,338,4.3,6.3,63,0.00,,,0.00,WUHU216HW,2013-04-16 02:40:00,
2013-04-15 21:45:00,42.8,31.5,29.98,NNE,23,4.0,6.7,64,0.00,,,0.00,WUHU216HW,2013-04-16 02:45:00,
2013-04-15 21:50:00,42.5,31.2,29.98,NE,45,5.1,6.7,64,0.00,,,0.00,WUHU216HW,2013-04-16 02:50:00,
2013-04-15 21:55:00,42.1,31.1,29.98,NNE,23,3.6,6.0,65,0.00,,,0.00,WUHU216HW,2013-04-16 02:55:00,
2013-04-15 22:00:00,41.9,31.4,29.98,East,90,2.9,6.7,66,0.00,,,0.00,WUHU216HW,2013-04-16 03:00:00,
2013-04-15 22:05:00,41.8,31.6,29.98,NE,45,4.7,6.7,67,0.00,,,0.00,WUHU216HW,2013-04-16 03:05:00,
2013-04-15 22:10:00,41.4,31.2,29.98,NE,45,3.4,6.3,67,0.00,,,0.00,WUHU216HW,2013-04-16 03:10:00,
2013-04-15 22:15:00,41.2,31.1,29.98,NE,45,1.8,6.3,67,0.00,,,0.00,WUHU216HW,2013-04-16 03:15:00,
2013-04-15 22:20:00,41.0,30.9,29.99,NNE,23,1.8,6.3,67,0.00,,,0.00,WUHU216HW,2013-04-16 03:20:00,
2013-04-15 22:25:00,40.7,31.0,29.99,NE,45,2.5,6.3,68,0.00,,,0.00,WUHU216HW,2013-04-16 03:25:00,
2013-04-15 22:30:00,40.5,30.8,29.99,North,0,3.6,4.5,68,0.00,,,0.00,WUHU216HW,2013-04-16 03:30:00,
2013-04-15 22:35:00,40.3,30.6,29.99,NE,45,1.1,4.5,68,0.00,,,0.00,WUHU216HW,2013-04-16 03:35:00,
2013-04-15 22:40:00,40.1,30.8,29.99,NNE,23,3.1,4.5,69,0.00,,,0.00,WUHU216HW,2013-04-16 03:40:00,
2013-04-15 22:45:00,40.0,30.6,29.99,NNE,23,2.2,4.5,69,0.00,,,0.00,WUHU216HW,2013-04-16 03:45:00,
2013-04-15 22:50:00,40.0,31.0,30.00,NE,45,2.5,4.5,70,0.00,,,0.00,WUHU216HW,2013-04-16 03:50:00,
2013-04-15 22:55:00,40.0,31.0,30.00,NNE,23,2.5,3.6,70,0.00,,,0.00,WUHU216HW,2013-04-16 03:55:00,
2013-04-15 23:00:00,40.0,31.0,30.00,North,0,4.9,4.9,70,0.00,,,0.00,WUHU216HW,2013-04-16 04:00:00,
2013-04-15 23:05:00,39.8,30.8,30.00,NNE,23,4.3,4.9,70,0.00,,,0.00,WUHU216HW,2013-04-16 04:05:00,
2013-04-15 23:10:00,39.8,30.8,29.99,NNE,23,4.3,5.4,70,0.00,,,0.00,WUHU216HW,2013-04-16 04:10:00,
2013-04-15 23:15:00,39.6,30.3,29.99,NNE,23,4.7,7.4,69,0.00,,,0.00,WUHU216HW,2013-04-16 04:15:00,
2013-04-15 23:20:00,39.4,30.1,29.99,NNE,23,4.3,7.6,69,0.00,,,0.00,WUHU216HW,2013-04-16 04:20:00,
2013-04-15 23:25:00,39.2,30.2,30.00,NNE,23,3.8,7.6,70,0.00,,,0.00,WUHU216HW,2013-04-16 04:25:00,
2013-04-15 23:30:00,39.2,30.2,30.01,NE,45,3.1,6.0,70,0.00,,,0.00,WUHU216HW,2013-04-16 04:30:00,
2013-04-15 23:35:00,39.1,30.1,30.01,NNE,23,2.9,6.0,70,0.00,,,0.00,WUHU216HW,2013-04-16 04:35:00,
2013-04-15 23:40:00,38.9,30.2,30.02,East,90,4.3,5.6,71,0.00,,,0.00,WUHU216HW,2013-04-16 04:40:00,
2013-04-15 23:45:00,38.7,30.1,30.02,NNE,23,3.4,5.6,71,0.00,,,0.00,WUHU216HW,2013-04-16 04:45:00,
2013-04-15 23:50:00,38.5,30.0,30.02,NE,45,3.4,5.4,71,0.00,,,0.00,WUHU216HW,2013-04-16 04:50:00,
2013-04-15 23:55:00,38.3,29.8,30.01,NNE,23,2.5,4.0,71,0.00,,,0.00,WUHU216HW,2013-04-16 04:55:00,